Flag for U.S.A. Weather past 2 weeks in Clarksville, Tennessee, U.S.A.

Now
80 °F

Passing clouds.


Feels Like: 84 °F
Forecast: 72 / 84 °F
Wind: 9 mph from Southwest

Location: Outlaw Field

Current Time: Sep 2, 2014 at 9:18:21 AM

Latest Report: Sep 2, 2014 at 8:52 AM


Visibility: 10 mi

Pressure: 30.00 "Hg

Humidity: 79%

Dew point: 73 °F

Location of ClarksvilleLocation

Historic Weather in Clarksville — Graph

°F

Clarksville temperature yesterday

Maximum temperature yesterday: 86 °F (at 12:52 PM)
Minimum temperature yesterday: 73 °F (at 1:52 AM)
Average temperature yesterday: 79 °F

Past Weeks' High & Low Weather Summary

 TemperatureHumidityPressure
High95 °F (Aug 23, 2:52 PM)97% (Aug 19, 4:00 AM)30.12 "Hg (Aug 19, 4:00 AM)
Low69 °F (Aug 21, 4:52 AM)39% (Aug 29, 3:52 PM)29.80 "Hg (Aug 18, 4:52 PM)
Average79 °F79%29.99 "Hg
* Reported Aug 18 7:52 AM — Sep 2 7:52 AM, Clarksville, Weather by CustomWeather, © 2014

Note: Actual official high and low records may vary slightly from our data, if they occured in-between our weather recording intervals... More about our weather records

Advertising

Clarksville weather history for previous 24 hours

 ConditionsComfort  
Time TempWeatherWind HumidityBarometerVisibility
7:52 AM
Sep 2
76 °FPassing clouds.7 mph85%29.99 "Hg10 mi
6:52 AM74 °FSunny.10 mph88%29.98 "Hg10 mi
5:52 AM74 °FClear.7 mph88%29.99 "Hg10 mi
4:52 AM75 °FClear.6 mph82%30.00 "Hg10 mi
3:52 AM76 °FClear.7 mph80%29.97 "Hg10 mi
2:52 AM76 °FClear.8 mph80%29.97 "Hg10 mi
1:52 AM74 °FClear.5 mph85%29.98 "Hg10 mi
12:52 AM75 °FClear.No wind85%29.98 "Hg10 mi
11:52 PM
Sep 1
75 °FClear.3 mph82%29.97 "Hg10 mi
10:52 PM77 °FClear.No wind79%29.98 "Hg10 mi
9:52 PM78 °FClear.5 mph76%29.98 "Hg10 mi
8:52 PM78 °FClear.3 mph76%29.98 "Hg10 mi
7:52 PM80 °FClear.3 mph74%29.96 "Hg10 mi
6:52 PM84 °FSunny.5 mph65%29.96 "Hg10 mi
5:52 PM86 °FSunny.9 mph61%29.93 "Hg10 mi
4:52 PM85 °FSunny.13 mph65%29.92 "Hg10 mi
3:52 PM85 °FSunny.14 mph65%29.94 "Hg10 mi
2:52 PM85 °FScattered clouds.13 mph63%29.97 "Hg10 mi
1:52 PM85 °FScattered clouds.15 mph63%29.99 "Hg10 mi
12:52 PM86 °FScattered clouds.16 mph63%30.00 "Hg10 mi
11:52 AM85 °FBroken clouds.14 mph68%30.00 "Hg10 mi
10:52 AM82 °FPassing clouds.8 mph79%30.01 "Hg10 mi
9:59 AM81 °FBroken clouds.12 mph77%30.05 "Hg9 mi
9:52 AM82 °FScattered clouds.6 mph77%30.03 "Hg10 mi
Weather by CustomWeather, © 2014

See weather overviewHow to use our weather pages